Location: Unspecified
(43.4354°N, 0.0000°E)
Time: 02:12:57
(UTC+00:00)

Courier 1B - Pass Details

Date: 20 June 2019
Orbit: 962 x 1209 km, 28.3° (Epoch: 23 July)

Event Time Altitude Azimuth Distance (km) Brightness Sun altitude
Rises 20:13:58 0° 238° (WSW) 3,933 10.9 -5.2°
Reaches altitude 10° 20:17:15 10° 225° (SW) 3,015 10.1 -5.6°
Maximum altitude 20:23:02 25° 174° (S) 2,181 9.0 -6.4°
Drops below altitude 10° 20:29:00 10° 124° (ESE) 3,121 9.5 -7.2°
Enters shadow 20:29:46 - 120° (ESE) 3,328 9.6 -7.3°
Sets 20:32:27 0° 111° (ESE) 4,101 - -7.7°
